Year,Month,Day,Hour,Minute,Value (Times are PST for temperature in C)
2014,04,13,00,00,12.30
2014,04,13,00,01,12.30
2014,04,13,00,02,12.30
2014,04,13,00,03,12.30
2014,04,13,00,04,12.40
2014,04,13,00,05,12.40
2014,04,13,00,06,12.40
2014,04,13,00,07,12.40
2014,04,13,00,08,12.50
2014,04,13,00,09,12.50
2014,04,13,00,10,12.50
2014,04,13,00,11,12.50
2014,04,13,00,12,12.50
2014,04,13,00,13,12.50
2014,04,13,00,14,12.50
2014,04,13,00,15,12.50
2014,04,13,00,16,12.50
2014,04,13,00,17,12.50
2014,04,13,00,18,12.50
2014,04,13,00,19,12.50
2014,04,13,00,20,12.40
2014,04,13,00,21,12.40
2014,04,13,00,22,12.30
2014,04,13,00,23,12.30
2014,04,13,00,24,12.20
2014,04,13,00,25,12.20
2014,04,13,00,26,12.10
2014,04,13,00,27,12.10
2014,04,13,00,28,12.00
2014,04,13,00,29,11.90
2014,04,13,00,30,11.80
2014,04,13,00,31,11.70
2014,04,13,00,32,11.60
2014,04,13,00,33,11.60
2014,04,13,00,34,11.50
2014,04,13,00,35,11.50
2014,04,13,00,36,11.40
2014,04,13,00,37,11.40
2014,04,13,00,38,11.30
2014,04,13,00,39,11.30
2014,04,13,00,40,11.20
2014,04,13,00,41,11.20
2014,04,13,00,42,11.20
2014,04,13,00,43,11.10
2014,04,13,00,44,11.10
2014,04,13,00,45,11.10
2014,04,13,00,46,11.00
2014,04,13,00,47,11.00
2014,04,13,00,48,11.00
2014,04,13,00,49,10.90
2014,04,13,00,50,10.90
2014,04,13,00,51,10.90
2014,04,13,00,52,10.80
2014,04,13,00,53,10.80
2014,04,13,00,54,10.80
2014,04,13,00,55,10.70
2014,04,13,00,56,10.70
2014,04,13,00,57,10.60
2014,04,13,00,58,10.60
2014,04,13,00,59,10.60
2014,04,13,01,00,10.60
2014,04,13,01,01,10.60
2014,04,13,01,02,10.60
2014,04,13,01,03,10.60
2014,04,13,01,04,10.60
2014,04,13,01,05,10.50
2014,04,13,01,06,10.50
2014,04,13,01,07,10.50
2014,04,13,01,08,10.50
2014,04,13,01,09,10.50
2014,04,13,01,10,10.40
2014,04,13,01,11,10.40
2014,04,13,01,12,10.40
2014,04,13,01,13,10.40
2014,04,13,01,14,10.40
2014,04,13,01,15,10.50
2014,04,13,01,16,10.50
2014,04,13,01,17,10.50
2014,04,13,01,18,10.50
2014,04,13,01,19,10.50
2014,04,13,01,20,10.50
2014,04,13,01,21,10.50
2014,04,13,01,22,10.40
2014,04,13,01,23,10.40
2014,04,13,01,24,10.40
2014,04,13,01,25,10.30
2014,04,13,01,26,10.20
2014,04,13,01,27,10.20
2014,04,13,01,28,10.10
2014,04,13,01,29,10.00
2014,04,13,01,30,9.90
2014,04,13,01,31,9.80
2014,04,13,01,32,9.70
2014,04,13,01,33,9.60
2014,04,13,01,34,9.50
2014,04,13,01,35,9.40
2014,04,13,01,36,9.40
2014,04,13,01,37,9.40
2014,04,13,01,38,9.30
2014,04,13,01,39,9.30
2014,04,13,01,40,9.30
2014,04,13,01,41,9.30
2014,04,13,01,42,9.30
2014,04,13,01,43,9.20
2014,04,13,01,44,9.20
2014,04,13,01,45,9.20
2014,04,13,01,46,9.20
2014,04,13,01,47,9.20
2014,04,13,01,48,9.20
2014,04,13,01,49,9.20
2014,04,13,01,50,9.20
2014,04,13,01,51,9.20
2014,04,13,01,52,9.20
2014,04,13,01,53,9.20
2014,04,13,01,54,9.20
2014,04,13,01,55,9.20
2014,04,13,01,56,9.20
2014,04,13,01,57,9.20
2014,04,13,01,58,9.20
2014,04,13,01,59,9.20
2014,04,13,02,00,9.20
2014,04,13,02,01,9.10
2014,04,13,02,02,9.10
2014,04,13,02,03,9.10
2014,04,13,02,04,9.00
2014,04,13,02,05,9.00
2014,04,13,02,06,8.90
2014,04,13,02,07,8.90
2014,04,13,02,08,8.80
2014,04,13,02,09,8.80
2014,04,13,02,10,8.80
2014,04,13,02,11,8.80
2014,04,13,02,12,8.70
2014,04,13,02,13,8.70
2014,04,13,02,14,8.60
2014,04,13,02,15,8.60
2014,04,13,02,16,8.50
2014,04,13,02,17,8.40
2014,04,13,02,18,8.30
2014,04,13,02,19,8.30
2014,04,13,02,20,8.30
2014,04,13,02,21,8.20
2014,04,13,02,22,8.20
2014,04,13,02,23,8.20
2014,04,13,02,24,8.10
2014,04,13,02,25,8.10
2014,04,13,02,26,8.10
2014,04,13,02,27,8.10
2014,04,13,02,28,8.10
2014,04,13,02,29,8.00
2014,04,13,02,30,8.00
2014,04,13,02,31,7.90
2014,04,13,02,32,7.90
2014,04,13,02,33,7.80
2014,04,13,02,34,7.80
2014,04,13,02,35,7.80
2014,04,13,02,36,7.80
2014,04,13,02,37,7.80
2014,04,13,02,38,7.80
2014,04,13,02,39,7.90
2014,04,13,02,40,7.90
2014,04,13,02,41,8.00
2014,04,13,02,42,8.10
2014,04,13,02,43,8.10
2014,04,13,02,44,8.20
2014,04,13,02,45,8.20
2014,04,13,02,46,8.20
2014,04,13,02,47,8.30
2014,04,13,02,48,8.30
2014,04,13,02,49,8.30
2014,04,13,02,50,8.30
2014,04,13,02,51,8.30
2014,04,13,02,52,8.30
2014,04,13,02,53,8.30
2014,04,13,02,54,8.30
2014,04,13,02,55,8.30
2014,04,13,02,56,8.30
2014,04,13,02,57,8.30
2014,04,13,02,58,8.30
2014,04,13,02,59,8.30
2014,04,13,03,00,8.30
2014,04,13,03,01,8.30
2014,04,13,03,02,8.30
2014,04,13,03,03,8.30
2014,04,13,03,04,8.30
2014,04,13,03,05,8.20
2014,04,13,03,06,8.20
2014,04,13,03,07,8.20
2014,04,13,03,08,8.20
2014,04,13,03,09,8.20
2014,04,13,03,10,8.20
2014,04,13,03,11,8.10
2014,04,13,03,12,8.10
2014,04,13,03,13,8.10
2014,04,13,03,14,8.00
2014,04,13,03,15,8.00
2014,04,13,03,16,8.00
2014,04,13,03,17,8.00
2014,04,13,03,18,8.00
2014,04,13,03,19,8.00
2014,04,13,03,20,8.00
2014,04,13,03,21,8.00
2014,04,13,03,22,8.00
2014,04,13,03,23,8.00
2014,04,13,03,24,8.00
2014,04,13,03,25,7.90
2014,04,13,03,26,7.90
2014,04,13,03,27,7.90
2014,04,13,03,28,7.90
2014,04,13,03,29,7.90
2014,04,13,03,30,7.80
2014,04,13,03,31,7.80
2014,04,13,03,32,7.80
2014,04,13,03,33,7.80
2014,04,13,03,34,7.80
2014,04,13,03,35,7.80
2014,04,13,03,36,7.70
2014,04,13,03,37,7.70
2014,04,13,03,38,7.70
2014,04,13,03,39,7.70
2014,04,13,03,40,7.70
2014,04,13,03,41,7.60
2014,04,13,03,42,7.60
2014,04,13,03,43,7.60
2014,04,13,03,44,7.60
2014,04,13,03,45,7.50
2014,04,13,03,46,7.50
2014,04,13,03,47,7.40
2014,04,13,03,48,7.40
2014,04,13,03,49,7.30
2014,04,13,03,50,7.30
2014,04,13,03,51,7.30
2014,04,13,03,52,7.20
2014,04,13,03,53,7.20
2014,04,13,03,54,7.20
2014,04,13,03,55,7.20
2014,04,13,03,56,7.20
2014,04,13,03,57,7.10
2014,04,13,03,58,7.10
2014,04,13,03,59,7.10
2014,04,13,04,00,7.20
2014,04,13,04,01,7.20
2014,04,13,04,02,7.10
2014,04,13,04,03,7.10
2014,04,13,04,04,7.10
2014,04,13,04,05,7.00
2014,04,13,04,06,7.00
2014,04,13,04,07,7.00
2014,04,13,04,08,6.90
2014,04,13,04,09,6.90
2014,04,13,04,10,6.90
2014,04,13,04,11,6.90
2014,04,13,04,12,6.80
2014,04,13,04,13,6.80
2014,04,13,04,14,6.80
2014,04,13,04,15,6.80
2014,04,13,04,16,6.80
2014,04,13,04,17,6.80
2014,04,13,04,18,6.80
2014,04,13,04,19,6.70
2014,04,13,04,20,6.70
2014,04,13,04,21,6.70
2014,04,13,04,22,6.70
2014,04,13,04,23,6.70
2014,04,13,04,24,6.70
2014,04,13,04,25,6.70
2014,04,13,04,26,6.70
2014,04,13,04,27,6.70
2014,04,13,04,28,6.70
2014,04,13,04,29,6.70
2014,04,13,04,30,6.70
2014,04,13,04,31,6.60
2014,04,13,04,32,6.60
2014,04,13,04,33,6.60
2014,04,13,04,34,6.60
2014,04,13,04,35,6.60
2014,04,13,04,36,6.60
2014,04,13,04,37,6.60
2014,04,13,04,38,6.60
2014,04,13,04,39,6.60
2014,04,13,04,40,6.60
2014,04,13,04,41,6.60
2014,04,13,04,42,6.50
2014,04,13,04,43,6.50
2014,04,13,04,44,6.50
2014,04,13,04,45,6.50
2014,04,13,04,46,6.40
2014,04,13,04,47,6.40
2014,04,13,04,48,6.40
2014,04,13,04,49,6.40
2014,04,13,04,50,6.40
2014,04,13,04,51,6.30
2014,04,13,04,52,6.30
2014,04,13,04,53,6.30
2014,04,13,04,54,6.30
2014,04,13,04,55,6.30
2014,04,13,04,56,6.30
2014,04,13,04,57,6.30
2014,04,13,04,58,6.30
2014,04,13,04,59,6.30
2014,04,13,05,00,6.30
2014,04,13,05,01,6.20
2014,04,13,05,02,6.20
2014,04,13,05,03,6.20
2014,04,13,05,04,6.20
2014,04,13,05,05,6.20
2014,04,13,05,06,6.20
2014,04,13,05,07,6.10
2014,04,13,05,08,6.10
2014,04,13,05,09,6.10
2014,04,13,05,10,6.10
2014,04,13,05,11,6.00
2014,04,13,05,12,6.00
2014,04,13,05,13,6.00
2014,04,13,05,14,6.00
2014,04,13,05,15,6.00
2014,04,13,05,16,6.00
2014,04,13,05,17,6.00
2014,04,13,05,18,6.00
2014,04,13,05,19,5.90
2014,04,13,05,20,5.90
2014,04,13,05,21,5.90
2014,04,13,05,22,5.90
2014,04,13,05,23,5.90
2014,04,13,05,24,5.90
2014,04,13,05,25,5.80
2014,04,13,05,26,5.80
2014,04,13,05,27,5.80
2014,04,13,05,28,5.80
2014,04,13,05,29,5.80
2014,04,13,05,30,5.80
2014,04,13,05,31,5.80
2014,04,13,05,32,5.80
2014,04,13,05,33,5.80
2014,04,13,05,34,5.80
2014,04,13,05,35,5.70
2014,04,13,05,36,5.70
2014,04,13,05,37,5.70
2014,04,13,05,38,5.70
2014,04,13,05,39,5.70
2014,04,13,05,40,5.70
2014,04,13,05,41,5.70
2014,04,13,05,42,5.70
2014,04,13,05,43,5.70
2014,04,13,05,44,5.60
2014,04,13,05,45,5.60
2014,04,13,05,46,5.60
2014,04,13,05,47,5.60
2014,04,13,05,48,5.60
2014,04,13,05,49,5.60
2014,04,13,05,50,5.60
2014,04,13,05,51,5.60
2014,04,13,05,52,5.60
2014,04,13,05,53,5.60
2014,04,13,05,54,5.60
2014,04,13,05,55,5.60
2014,04,13,05,56,5.60
2014,04,13,05,57,5.60
2014,04,13,05,58,5.50
2014,04,13,05,59,5.50
2014,04,13,06,00,5.50
2014,04,13,06,01,5.50
2014,04,13,06,02,5.50
2014,04,13,06,03,5.50
2014,04,13,06,04,5.50
2014,04,13,06,05,5.50
2014,04,13,06,06,5.40
2014,04,13,06,07,5.40
2014,04,13,06,08,5.40
2014,04,13,06,09,5.40
2014,04,13,06,10,5.40
2014,04,13,06,11,5.40
2014,04,13,06,12,5.40
2014,04,13,06,13,5.40
2014,04,13,06,14,5.30
2014,04,13,06,15,5.30
2014,04,13,06,16,5.30
2014,04,13,06,17,5.30
2014,04,13,06,18,5.30
2014,04,13,06,19,5.30
2014,04,13,06,20,5.30
2014,04,13,06,21,5.30
2014,04,13,06,22,5.30
2014,04,13,06,23,5.30
2014,04,13,06,24,5.20
2014,04,13,06,25,5.20
2014,04,13,06,26,5.20
2014,04,13,06,27,5.20
2014,04,13,06,28,5.20
2014,04,13,06,29,5.20
2014,04,13,06,30,5.20
2014,04,13,06,31,5.20
2014,04,13,06,32,5.20
2014,04,13,06,33,5.20
2014,04,13,06,34,5.20
2014,04,13,06,35,5.20
2014,04,13,06,36,5.20
2014,04,13,06,37,5.20
2014,04,13,06,38,5.20
2014,04,13,06,39,5.20
2014,04,13,06,40,5.20
2014,04,13,06,41,5.20
2014,04,13,06,42,5.20
2014,04,13,06,43,5.20
2014,04,13,06,44,5.20
2014,04,13,06,45,5.20
2014,04,13,06,46,5.20
2014,04,13,06,47,5.20
2014,04,13,06,48,5.20
2014,04,13,06,49,5.20
2014,04,13,06,50,5.20
2014,04,13,06,51,5.20
2014,04,13,06,52,5.20
2014,04,13,06,53,5.20
2014,04,13,06,54,5.20
2014,04,13,06,55,5.20
2014,04,13,06,56,5.20
2014,04,13,06,57,5.20
2014,04,13,06,58,5.20
2014,04,13,06,59,5.20
2014,04,13,07,00,5.20
2014,04,13,07,01,5.20
2014,04,13,07,02,5.20
2014,04,13,07,03,5.20
2014,04,13,07,04,5.20
2014,04,13,07,05,5.20
2014,04,13,07,06,5.20
2014,04,13,07,07,5.20
2014,04,13,07,08,5.20
2014,04,13,07,09,5.30
2014,04,13,07,10,5.30
2014,04,13,07,11,5.30
2014,04,13,07,12,5.30
2014,04,13,07,13,5.40
2014,04,13,07,14,5.40
2014,04,13,07,15,5.50
2014,04,13,07,16,5.50
2014,04,13,07,17,5.50
2014,04,13,07,18,5.60
2014,04,13,07,19,5.70
2014,04,13,07,20,5.70
2014,04,13,07,21,5.80
2014,04,13,07,22,5.80
2014,04,13,07,23,5.90
2014,04,13,07,24,6.00
2014,04,13,07,25,6.00
2014,04,13,07,26,6.10
2014,04,13,07,27,6.20
2014,04,13,07,28,6.20
2014,04,13,07,29,6.30
2014,04,13,07,30,6.30
2014,04,13,07,31,6.40
2014,04,13,07,32,6.50
2014,04,13,07,33,6.50
2014,04,13,07,34,6.60
2014,04,13,07,35,6.70
2014,04,13,07,36,6.80
2014,04,13,07,37,6.90
2014,04,13,07,38,6.90
2014,04,13,07,39,7.00
2014,04,13,07,40,7.10
2014,04,13,07,41,7.20
2014,04,13,07,42,7.20
2014,04,13,07,43,7.30
2014,04,13,07,44,7.30
2014,04,13,07,45,7.30
2014,04,13,07,46,7.40
2014,04,13,07,47,7.40
2014,04,13,07,48,7.40
2014,04,13,07,49,7.50
2014,04,13,07,50,7.50
2014,04,13,07,51,7.60
2014,04,13,07,52,7.60
2014,04,13,07,53,7.60
2014,04,13,07,54,7.60
2014,04,13,07,55,7.60
2014,04,13,07,56,7.60
2014,04,13,07,57,7.60
2014,04,13,07,58,7.60
2014,04,13,07,59,7.60
2014,04,13,08,00,7.60
2014,04,13,08,01,7.60
2014,04,13,08,02,7.60
2014,04,13,08,03,7.60
2014,04,13,08,04,7.70
2014,04,13,08,05,7.70
2014,04,13,08,06,7.70
2014,04,13,08,07,7.80
2014,04,13,08,08,7.80
2014,04,13,08,09,7.80
2014,04,13,08,10,7.90
2014,04,13,08,11,8.00
2014,04,13,08,12,8.00
2014,04,13,08,13,8.10
2014,04,13,08,14,8.20
2014,04,13,08,15,8.20
2014,04,13,08,16,8.30
2014,04,13,08,17,8.30
2014,04,13,08,18,8.30
2014,04,13,08,19,8.40
2014,04,13,08,20,8.40
2014,04,13,08,21,8.40
2014,04,13,08,22,8.40
2014,04,13,08,23,8.40
2014,04,13,08,24,8.40
2014,04,13,08,25,8.40
2014,04,13,08,26,8.40
2014,04,13,08,27,8.40
2014,04,13,08,28,8.40
2014,04,13,08,29,8.40
2014,04,13,08,30,8.50
2014,04,13,08,31,8.50
2014,04,13,08,32,8.50
2014,04,13,08,33,8.60
2014,04,13,08,34,8.60
2014,04,13,08,35,8.70
2014,04,13,08,36,8.80
2014,04,13,08,37,8.90
2014,04,13,08,38,9.00
2014,04,13,08,39,9.00
2014,04,13,08,40,9.10
2014,04,13,08,41,9.20
2014,04,13,08,42,9.20
2014,04,13,08,43,9.30
2014,04,13,08,44,9.30
2014,04,13,08,45,9.40
2014,04,13,08,46,9.50
2014,04,13,08,47,9.50
2014,04,13,08,48,9.60
2014,04,13,08,49,9.60
2014,04,13,08,50,9.60
2014,04,13,08,51,9.70
2014,04,13,08,52,9.70
2014,04,13,08,53,9.70
2014,04,13,08,54,9.70
2014,04,13,08,55,9.70
2014,04,13,08,56,9.70
2014,04,13,08,57,9.70
2014,04,13,08,58,9.70
2014,04,13,08,59,9.80
2014,04,13,09,00,9.90
2014,04,13,09,01,9.90
2014,04,13,09,02,10.00
2014,04,13,09,03,10.00
2014,04,13,09,04,10.10
2014,04,13,09,05,10.10
2014,04,13,09,06,10.10
2014,04,13,09,07,10.10
2014,04,13,09,08,10.20
2014,04,13,09,09,10.20
2014,04,13,09,10,10.20
2014,04,13,09,11,10.20
2014,04,13,09,12,10.20
2014,04,13,09,13,10.20
2014,04,13,09,14,10.20
2014,04,13,09,15,10.20
2014,04,13,09,16,10.20
2014,04,13,09,17,10.10
2014,04,13,09,18,10.10
2014,04,13,09,19,10.10
2014,04,13,09,20,10.10
2014,04,13,09,21,10.10
2014,04,13,09,22,10.10
2014,04,13,09,23,10.10
2014,04,13,09,24,10.10
2014,04,13,09,25,10.10
2014,04,13,09,26,10.10
2014,04,13,09,27,10.10
2014,04,13,09,28,10.10
2014,04,13,09,29,10.10
2014,04,13,09,30,10.10
2014,04,13,09,31,10.10
2014,04,13,09,32,10.10
2014,04,13,09,33,10.10
2014,04,13,09,34,10.10
2014,04,13,09,35,10.10
2014,04,13,09,36,10.10
2014,04,13,09,37,10.10
2014,04,13,09,38,10.10
2014,04,13,09,39,10.10
2014,04,13,09,40,10.10
2014,04,13,09,41,10.10
2014,04,13,09,42,10.10
2014,04,13,09,43,10.10
2014,04,13,09,44,10.10
2014,04,13,09,45,10.10
2014,04,13,09,46,10.10
2014,04,13,09,47,10.20
2014,04,13,09,48,10.20
2014,04,13,09,49,10.20
2014,04,13,09,50,10.20
2014,04,13,09,51,10.20
2014,04,13,09,52,10.20
2014,04,13,09,53,10.20
2014,04,13,09,54,10.20
2014,04,13,09,55,10.20
2014,04,13,09,56,10.20
2014,04,13,09,57,10.20
2014,04,13,09,58,10.30
2014,04,13,09,59,10.30
2014,04,13,10,00,10.30
2014,04,13,10,01,10.30
2014,04,13,10,02,10.30
2014,04,13,10,03,10.30
2014,04,13,10,04,10.40
2014,04,13,10,05,10.40
2014,04,13,10,06,10.40
2014,04,13,10,07,10.40
2014,04,13,10,08,10.50
2014,04,13,10,09,10.50
2014,04,13,10,10,10.50
2014,04,13,10,11,10.60
2014,04,13,10,12,10.60
2014,04,13,10,13,10.60
2014,04,13,10,14,10.60
2014,04,13,10,15,10.60
2014,04,13,10,16,10.60
2014,04,13,10,17,10.60
2014,04,13,10,18,10.60
2014,04,13,10,19,10.70
2014,04,13,10,20,10.70
2014,04,13,10,21,10.70
2014,04,13,10,22,10.70
2014,04,13,10,23,10.70
2014,04,13,10,24,10.70
2014,04,13,10,25,10.70
2014,04,13,10,26,10.80
2014,04,13,10,27,10.80
2014,04,13,10,28,10.80
2014,04,13,10,29,10.80
2014,04,13,10,30,10.80
2014,04,13,10,31,10.90
2014,04,13,10,32,10.90
2014,04,13,10,33,10.90
2014,04,13,10,34,10.90
2014,04,13,10,35,10.90
2014,04,13,10,36,10.90
2014,04,13,10,37,10.90
2014,04,13,10,38,10.90
2014,04,13,10,39,10.90
2014,04,13,10,40,10.90
2014,04,13,10,41,10.90
2014,04,13,10,42,11.00
2014,04,13,10,43,11.00
2014,04,13,10,44,11.10
2014,04,13,10,45,11.20
2014,04,13,10,46,11.20
2014,04,13,10,47,11.30
2014,04,13,10,48,11.40
2014,04,13,10,49,11.40
2014,04,13,10,50,11.50
2014,04,13,10,51,11.60
2014,04,13,10,52,11.70
2014,04,13,10,53,11.70
2014,04,13,10,54,11.80
2014,04,13,10,55,11.80
2014,04,13,10,56,11.80
2014,04,13,10,57,11.80
2014,04,13,10,58,11.80
2014,04,13,10,59,11.80
2014,04,13,11,00,11.80
2014,04,13,11,01,11.80
2014,04,13,11,02,11.70
2014,04,13,11,03,11.70
2014,04,13,11,04,11.70
2014,04,13,11,05,11.70
2014,04,13,11,06,11.80
2014,04,13,11,07,11.80
2014,04,13,11,08,11.80
2014,04,13,11,09,11.80
2014,04,13,11,10,11.90
2014,04,13,11,11,12.00
2014,04,13,11,12,12.20
2014,04,13,11,13,12.20
2014,04,13,11,14,12.20
2014,04,13,11,15,12.20
2014,04,13,11,16,12.20
2014,04,13,11,17,12.10
2014,04,13,11,18,12.10
2014,04,13,11,19,12.10
2014,04,13,11,20,12.10
2014,04,13,11,21,12.20
2014,04,13,11,22,12.20
2014,04,13,11,23,12.30
2014,04,13,11,24,12.40
2014,04,13,11,25,12.50
2014,04,13,11,26,12.60
2014,04,13,11,27,12.70
2014,04,13,11,28,12.80
2014,04,13,11,29,12.80
2014,04,13,11,30,12.90
2014,04,13,11,31,12.90
2014,04,13,11,32,13.00
2014,04,13,11,33,13.10
2014,04,13,11,34,13.20
2014,04,13,11,35,13.30
2014,04,13,11,36,13.30
2014,04,13,11,37,13.30
2014,04,13,11,38,13.30
2014,04,13,11,39,13.30
2014,04,13,11,40,13.40
2014,04,13,11,41,13.40
2014,04,13,11,42,13.50
2014,04,13,11,43,13.50
2014,04,13,11,44,13.60
2014,04,13,11,45,13.60
2014,04,13,11,46,13.60
2014,04,13,11,47,13.70
2014,04,13,11,48,13.70
2014,04,13,11,49,13.70
2014,04,13,11,50,13.70
2014,04,13,11,51,13.70
2014,04,13,11,52,13.60
2014,04,13,11,53,13.60
2014,04,13,11,54,13.60
2014,04,13,11,55,13.60
2014,04,13,11,56,13.60
2014,04,13,11,57,13.70
2014,04,13,11,58,13.70
2014,04,13,11,59,13.80
2014,04,13,12,00,13.80
2014,04,13,12,01,13.80
2014,04,13,12,02,13.80
2014,04,13,12,03,13.80
2014,04,13,12,04,13.90
2014,04,13,12,05,13.90
2014,04,13,12,06,14.00
2014,04,13,12,07,14.00
2014,04,13,12,08,14.00
2014,04,13,12,09,14.00
2014,04,13,12,10,13.90
2014,04,13,12,11,13.90
2014,04,13,12,12,13.90
2014,04,13,12,13,13.80
2014,04,13,12,14,13.80
2014,04,13,12,15,13.90
2014,04,13,12,16,13.90
2014,04,13,12,17,13.90
2014,04,13,12,18,14.00
2014,04,13,12,19,14.10
2014,04,13,12,20,14.10
2014,04,13,12,21,14.20
2014,04,13,12,22,14.30
2014,04,13,12,23,14.30
2014,04,13,12,24,14.30
2014,04,13,12,25,14.30
2014,04,13,12,26,14.30
2014,04,13,12,27,14.30
2014,04,13,12,28,14.30
2014,04,13,12,29,14.30
2014,04,13,12,30,14.40
2014,04,13,12,31,14.40
2014,04,13,12,32,14.50
2014,04,13,12,33,14.60
2014,04,13,12,34,14.60
2014,04,13,12,35,14.70
2014,04,13,12,36,14.80
2014,04,13,12,37,14.80
2014,04,13,12,38,14.80
2014,04,13,12,39,14.80
2014,04,13,12,40,14.70
2014,04,13,12,41,14.70
2014,04,13,12,42,14.70
2014,04,13,12,43,14.70
2014,04,13,12,44,14.60
2014,04,13,12,45,14.50
2014,04,13,12,46,14.40
2014,04,13,12,47,14.40
2014,04,13,12,48,14.40
2014,04,13,12,49,14.40
2014,04,13,12,50,14.40
2014,04,13,12,51,14.40
2014,04,13,12,52,14.40
2014,04,13,12,53,14.40
2014,04,13,12,54,14.40
2014,04,13,12,55,14.40
2014,04,13,12,56,14.40
2014,04,13,12,57,14.40
2014,04,13,12,58,14.50
2014,04,13,12,59,14.60
2014,04,13,13,00,14.60
2014,04,13,13,01,14.70
2014,04,13,13,02,14.70
2014,04,13,13,03,14.80
2014,04,13,13,04,14.80
2014,04,13,13,05,14.80
2014,04,13,13,06,14.80
2014,04,13,13,07,14.70
2014,04,13,13,08,14.60
2014,04,13,13,09,14.60
2014,04,13,13,10,14.60
2014,04,13,13,11,14.60
2014,04,13,13,12,14.60
2014,04,13,13,13,14.60
2014,04,13,13,14,14.70
2014,04,13,13,15,14.70
2014,04,13,13,16,14.60
2014,04,13,13,17,14.60
2014,04,13,13,18,14.60
2014,04,13,13,19,14.60
2014,04,13,13,20,14.50
2014,04,13,13,21,14.50
2014,04,13,13,22,14.50
2014,04,13,13,23,14.40
2014,04,13,13,24,14.40
2014,04,13,13,25,14.30
2014,04,13,13,26,14.30
2014,04,13,13,27,14.30
2014,04,13,13,28,14.20
2014,04,13,13,29,14.20
2014,04,13,13,30,14.20
2014,04,13,13,31,14.30
2014,04,13,13,32,14.30
2014,04,13,13,33,14.30
2014,04,13,13,34,14.30
2014,04,13,13,35,14.30
2014,04,13,13,36,14.30
2014,04,13,13,37,14.30
2014,04,13,13,38,14.30
2014,04,13,13,39,14.30
2014,04,13,13,40,14.30
2014,04,13,13,41,14.40
2014,04,13,13,42,14.40
2014,04,13,13,43,14.50
2014,04,13,13,44,14.50
2014,04,13,13,45,14.50
2014,04,13,13,46,14.60
2014,04,13,13,47,14.60
2014,04,13,13,48,14.60
2014,04,13,13,49,14.60
2014,04,13,13,50,14.70
2014,04,13,13,51,14.70
2014,04,13,13,52,14.70
2014,04,13,13,53,14.70
2014,04,13,13,54,14.70
2014,04,13,13,55,14.60
2014,04,13,13,56,14.60
2014,04,13,13,57,14.50
2014,04,13,13,58,14.50
2014,04,13,13,59,14.40
2014,04,13,14,00,14.40
2014,04,13,14,01,14.30
2014,04,13,14,02,14.30
2014,04,13,14,03,14.30
2014,04,13,14,04,14.30
2014,04,13,14,05,14.30
2014,04,13,14,06,14.30
2014,04,13,14,07,14.30
2014,04,13,14,08,14.30
2014,04,13,14,09,14.30
2014,04,13,14,10,14.30
2014,04,13,14,11,14.30
2014,04,13,14,12,14.30
2014,04,13,14,13,14.30
2014,04,13,14,14,14.30
2014,04,13,14,15,14.30
2014,04,13,14,16,14.20
2014,04,13,14,17,14.20
2014,04,13,14,18,14.10
2014,04,13,14,19,14.10
2014,04,13,14,20,14.00
2014,04,13,14,21,14.00
2014,04,13,14,22,14.00
2014,04,13,14,23,14.00
2014,04,13,14,24,14.00
2014,04,13,14,25,14.10
2014,04,13,14,26,14.10
2014,04,13,14,27,14.10
2014,04,13,14,28,14.00
2014,04,13,14,29,14.00
2014,04,13,14,30,14.00
2014,04,13,14,31,13.90
2014,04,13,14,32,13.90
2014,04,13,14,33,13.90
2014,04,13,14,34,13.90
2014,04,13,14,35,14.00
2014,04,13,14,36,14.00
2014,04,13,14,37,14.00
2014,04,13,14,38,14.00
2014,04,13,14,39,13.90
2014,04,13,14,40,13.90
2014,04,13,14,41,13.90
2014,04,13,14,42,13.90
2014,04,13,14,43,13.90
2014,04,13,14,44,13.90
2014,04,13,14,45,14.00
2014,04,13,14,46,14.00
2014,04,13,14,47,14.10
2014,04,13,14,48,14.10
2014,04,13,14,49,14.10
2014,04,13,14,50,14.10
2014,04,13,14,51,14.10
2014,04,13,14,52,14.10
2014,04,13,14,53,14.10
2014,04,13,14,54,14.10
2014,04,13,14,55,14.00
2014,04,13,14,56,14.00
2014,04,13,14,57,14.00
2014,04,13,14,58,13.90
2014,04,13,14,59,13.90
2014,04,13,15,00,13.90
2014,04,13,15,01,13.90
2014,04,13,15,02,13.90
2014,04,13,15,03,13.90
2014,04,13,15,04,13.90
2014,04,13,15,05,14.00
2014,04,13,15,06,14.00
2014,04,13,15,07,14.00
2014,04,13,15,08,14.00
2014,04,13,15,09,14.10
2014,04,13,15,10,14.10
2014,04,13,15,11,14.10
2014,04,13,15,12,14.10
2014,04,13,15,13,14.20
2014,04,13,15,14,14.20
2014,04,13,15,15,14.20
2014,04,13,15,16,14.20
2014,04,13,15,17,14.30
2014,04,13,15,18,14.30
2014,04,13,15,19,14.30
2014,04,13,15,20,14.30
2014,04,13,15,21,14.30
2014,04,13,15,22,14.30
2014,04,13,15,23,14.30
2014,04,13,15,24,14.30
2014,04,13,15,25,14.30
2014,04,13,15,26,14.40
2014,04,13,15,27,14.40
2014,04,13,15,28,14.40
2014,04,13,15,29,14.40
2014,04,13,15,30,14.40
2014,04,13,15,31,14.40
2014,04,13,15,32,14.50
2014,04,13,15,33,14.50
2014,04,13,15,34,14.60
2014,04,13,15,35,14.50
2014,04,13,15,36,14.50
2014,04,13,15,37,14.40
2014,04,13,15,38,14.50
2014,04,13,15,39,14.40
2014,04,13,15,40,14.40
2014,04,13,15,41,14.40
2014,04,13,15,42,14.50
2014,04,13,15,43,14.50
2014,04,13,15,44,14.50
2014,04,13,15,45,14.50
2014,04,13,15,46,14.50
2014,04,13,15,47,14.50
2014,04,13,15,48,14.60
2014,04,13,15,49,14.60
2014,04,13,15,50,14.60
2014,04,13,15,51,14.70
2014,04,13,15,52,14.70
2014,04,13,15,53,14.70
2014,04,13,15,54,14.80
2014,04,13,15,55,14.80
2014,04,13,15,56,14.90
2014,04,13,15,57,14.90
2014,04,13,15,58,14.90
2014,04,13,15,59,14.90
2014,04,13,16,00,14.80
2014,04,13,16,01,14.80
2014,04,13,16,02,14.80
2014,04,13,16,03,14.80
2014,04,13,16,04,14.80
2014,04,13,16,05,14.80
2014,04,13,16,06,14.80
2014,04,13,16,07,14.80
2014,04,13,16,08,14.80
2014,04,13,16,09,14.70
2014,04,13,16,10,14.70
2014,04,13,16,11,14.60
2014,04,13,16,12,14.60
2014,04,13,16,13,14.60
2014,04,13,16,14,14.50
2014,04,13,16,15,14.50
2014,04,13,16,16,14.40
2014,04,13,16,17,14.40
2014,04,13,16,18,14.30
2014,04,13,16,19,14.30
2014,04,13,16,20,14.30
2014,04,13,16,21,14.30
2014,04,13,16,22,14.30
2014,04,13,16,23,14.30
2014,04,13,16,24,14.30
2014,04,13,16,25,14.20
2014,04,13,16,26,14.20
2014,04,13,16,27,14.10
2014,04,13,16,28,14.10
2014,04,13,16,29,14.10
2014,04,13,16,30,14.10
2014,04,13,16,31,14.20
2014,04,13,16,32,14.20
2014,04,13,16,33,14.30
2014,04,13,16,34,14.30
2014,04,13,16,35,14.30
2014,04,13,16,36,14.30
2014,04,13,16,37,14.30
2014,04,13,16,38,14.40
2014,04,13,16,39,14.40
2014,04,13,16,40,14.50
2014,04,13,16,41,14.50
2014,04,13,16,42,14.60
2014,04,13,16,43,14.60
2014,04,13,16,44,14.60
2014,04,13,16,45,14.50
2014,04,13,16,46,14.50
2014,04,13,16,47,14.50
2014,04,13,16,48,14.50
2014,04,13,16,49,14.50
2014,04,13,16,50,14.50
2014,04,13,16,51,14.50
2014,04,13,16,52,14.50
2014,04,13,16,53,14.50
2014,04,13,16,54,14.50
2014,04,13,16,55,14.50
2014,04,13,16,56,14.50
2014,04,13,16,57,14.40
2014,04,13,16,58,14.40
2014,04,13,16,59,14.40
2014,04,13,17,00,14.30
2014,04,13,17,01,14.30
2014,04,13,17,02,14.20
2014,04,13,17,03,14.20
2014,04,13,17,04,14.10
2014,04,13,17,05,14.10
2014,04,13,17,06,14.10
2014,04,13,17,07,14.00
2014,04,13,17,08,14.00
2014,04,13,17,09,14.10
2014,04,13,17,10,14.10
2014,04,13,17,11,14.10
2014,04,13,17,12,14.10
2014,04,13,17,13,14.20
2014,04,13,17,14,14.20
2014,04,13,17,15,14.30
2014,04,13,17,16,14.30
2014,04,13,17,17,14.40
2014,04,13,17,18,14.40
2014,04,13,17,19,14.50
2014,04,13,17,20,14.50
2014,04,13,17,21,14.60
2014,04,13,17,22,14.60
2014,04,13,17,23,14.60
2014,04,13,17,24,14.60
2014,04,13,17,25,14.60
2014,04,13,17,26,14.70
2014,04,13,17,27,14.70
2014,04,13,17,28,14.70
2014,04,13,17,29,14.70
2014,04,13,17,30,14.70
2014,04,13,17,31,14.70
2014,04,13,17,32,14.70
2014,04,13,17,33,14.80
2014,04,13,17,34,14.80
2014,04,13,17,35,14.80
2014,04,13,17,36,14.80
2014,04,13,17,37,14.70
2014,04,13,17,38,14.70
2014,04,13,17,39,14.70